This demonstration page uses our WeatherBlox Daily Observations layout. Learn more.

Left ArrowRight Arrow

Hourly Observations for December 5, 2021

Temp ( °F °C ) Dew Point ( °F °C ) Humidity (%) Winds ( mph kmh ) Pressure ( in mb ) Visibility ( mi km ) Precip ( " mm )
12:15 am 00:15 Clear 45 7 28 -2 53 53 Calm 30.27 1025 10 16 0.00 0.00
12:35 am 00:35 Clear 46 8 27 -3 46 46 N 6 9 30.27 1025 10 16 0.00 0.00
12:55 am 00:55 Clear 46 8 27 -3 46 46 N 6 9 30.27 1025 10 16 0.00 0.00
1:15 am 01:15 Clear 46 8 27 -3 46 46 N 8 13 30.27 1025 10 16 0.00 0.00
1:35 am 01:35 Clear 46 8 27 -3 46 46 N 7 11 30.28 1025 10 16 0.00 0.00
1:55 am 01:55 Clear 45 7 27 -3 49 49 Calm 30.28 1025 10 16 0.00 0.00
2:15 am 02:15 Clear 45 7 27 -3 49 49 Calm 30.29 1026 10 16 0.00 0.00
2:35 am 02:35 Clear 43 6 28 -2 57 57 Calm 30.30 1026 10 16 0.00 0.00
2:55 am 02:55 Clear 41 5 28 -2 61 61 Calm 30.30 1026 10 16 0.00 0.00
3:15 am 03:15 Clear 41 5 28 -2 61 61 Calm 30.31 1027 10 16 0.00 0.00
3:35 am 03:35 Clear 41 5 28 -2 61 61 NNE 5 7 30.31 1027 10 16 0.00 0.00
3:55 am 03:55 Clear 39 4 28 -2 65 65 NNE 6 9 30.32 1027 10 16 0.00 0.00
4:15 am 04:15 Clear 39 4 28 -2 65 65 NNE 3 6 30.32 1027 10 16 0.00 0.00
4:35 am 04:35 Clear 37 3 28 -2 70 70 NNE 8 13 30.33 1027 10 16 0.00 0.00
4:55 am 04:55 Clear 37 3 28 -2 70 70 NNE 8 13 30.33 1027 10 16 0.00 0.00
5:15 am 05:15 Clear 39 4 28 -2 65 65 NNE 8 13 30.34 1027 10 16 0.00 0.00
5:35 am 05:35 Clear 39 4 27 -3 61 61 NNE 7 11 30.34 1027 10 16 0.00 0.00
5:55 am 05:55 Clear 41 5 25 -4 53 53 NNE 5 7 30.34 1028 10 16 0.00 0.00
6:15 am 06:15 Clear 41 5 25 -4 53 53 Calm 30.35 1028 10 16 0.00 0.00
6:35 am 06:35 Clear 37 3 27 -3 65 65 Calm 30.37 1028 10 16 0.00 0.00
6:55 am 06:55 Clear 34 1 28 -2 81 81 Calm 30.38 1029 10 16 0.00 0.00
7:15 am 07:15 Sunny 34 1 28 -2 81 81 NE 3 6 30.38 1029 10 16 0.00 0.00
7:35 am 07:35 Sunny 34 1 28 -2 81 81 Calm 30.39 1029 10 16 0.00 0.00
10:15 am 10:15 Sunny 45 7 27 -3 49 49 Calm 30.41 1030 10 16 0.00 0.00
10:35 am 10:35 Mostly Cloudy 46 8 27 -3 46 46 Calm 30.41 1030 10 16 0.00 0.00
10:55 am 10:55 Cloudy 46 8 28 -2 50 50 Calm 30.41 1030 10 16 0.00 0.00
11:15 am 11:15 Cloudy 48 9 27 -3 43 43 SE 6 9 30.40 1029 10 16 0.00 0.00
11:35 am 11:35 Cloudy 48 9 27 -3 43 43 SSE 6 9 30.39 1029 10 16 0.00 0.00
11:55 am 11:55 Cloudy 48 9 27 -3 43 43 S 7 11 30.38 1029 10 16 0.00 0.00
12:15 pm 12:15 Cloudy 50 10 28 -2 43 43 SSW 8 13 30.37 1028 10 16 0.00 0.00
12:35 pm 12:35 Cloudy 50 10 28 -2 43 43 S 10 17 30.36 1028 10 16 0.00 0.00
12:55 pm 12:55 Cloudy 50 10 27 -3 40 40 S 8 13 30.34 1027 10 16 0.00 0.00
1:15 pm 13:15 Cloudy 48 9 30 -1 50 50 SSW 5 7 30.34 1027 10 16 0.00 0.00
1:35 pm 13:35 Cloudy 50 10 28 -2 43 43 S 8 13 30.32 1027 10 16 0.00 0.00
1:55 pm 13:55 Cloudy 50 10 28 -2 43 43 SSE 9 15 30.32 1027 10 16 0.00 0.00
2:15 pm 14:15 Cloudy 50 10 28 -2 43 43 SSE 6 9 30.31 1026 10 16 0.00 0.00
2:35 pm 14:35 Cloudy 50 10 28 -2 43 43 SSE 5 7 30.30 1026 10 16 0.00 0.00
2:55 pm 14:55 Cloudy 50 10 28 -2 43 43 S 8 13 30.29 1026 10 16 0.00 0.00
3:15 pm 15:15 Cloudy 50 10 28 -2 43 43 SSE 8 13 30.28 1025 10 16 0.00 0.00
3:35 pm 15:35 Cloudy 50 10 28 -2 43 43 S 10 17 30.27 1025 10 16 0.00 0.00
3:55 pm 15:55 Cloudy 50 10 28 -2 43 43 S 9 15 30.27 1025 10 16 0.00 0.00
4:15 pm 16:15 Cloudy 50 10 28 -2 43 43 S 6 9 30.27 1025 10 16 0.00 0.00
4:35 pm 16:35 Cloudy 50 10 30 -1 47 47 S 6 9 30.26 1025 10 16 0.00 0.00
4:55 pm 16:55 Mostly Cloudy 50 10 30 -1 47 47 SSE 5 7 30.25 1024 10 16 0.00 0.00
5:15 pm 17:15 Partly Cloudy 50 10 28 -2 43 43 SSE 6 9 30.25 1024 10 16 0.00 0.00
5:35 pm 17:35 Mostly Cloudy 48 9 30 -1 50 50 SE 6 9 30.24 1024 10 16 0.00 0.00
5:55 pm 17:55 Mostly Cloudy 48 9 30 -1 50 50 SSE 5 7 30.25 1024 10 16 0.00 0.00
6:15 pm 18:15 Partly Cloudy 46 8 28 -2 50 50 SSE 3 6 30.25 1024 10 16 0.00 0.00
6:35 pm 18:35 Clear 46 8 30 -1 53 53 S 6 9 30.25 1024 10 16 0.00 0.00
6:55 pm 18:55 Partly Cloudy 45 7 30 -1 57 57 SSE 3 6 30.25 1024 10 16 0.00 0.00
7:15 pm 19:15 Partly Cloudy 46 8 30 -1 53 53 S 3 6 30.24 1024 10 16 0.00 0.00
7:35 pm 19:35 Mostly Cloudy 46 8 30 -1 53 53 S 5 7 30.24 1024 10 16 0.00 0.00
7:55 pm 19:55 Cloudy 46 8 30 -1 53 53 SSE 8 13 30.23 1024 10 16 0.00 0.00
8:15 pm 20:15 Cloudy 46 8 30 -1 53 53 SSE 6 9 30.23 1024 10 16 0.00 0.00
8:35 pm 20:35 Cloudy 48 9 32 0 54 54 SSE 6 9 30.22 1023 10 16 0.00 0.00
8:55 pm 20:55 Cloudy 48 9 32 0 54 54 SSE 7 11 30.21 1023 10 16 0.00 0.00
9:15 pm 21:15 Cloudy 48 9 32 0 54 54 S 14 22 30.20 1023 10 16 0.00 0.00
9:35 pm 21:35 Cloudy 48 9 32 0 54 54 SSE 12 19 30.20 1023 10 16 0.00 0.00
9:55 pm 21:55 Cloudy 48 9 32 0 54 54 SSE 8 13 30.19 1022 10 16 0.00 0.00
10:15 pm 22:15 Cloudy 50 10 34 1 54 54 SSE 15 24 30.19 1022 10 16 0.00 0.00
10:35 pm 22:35 Cloudy 48 9 34 1 58 58 S 8 13 30.19 1022 10 16 0.00 0.00
10:55 pm 22:55 Cloudy 48 9 34 1 58 58 SSW 5 7 30.19 1022 10 16 0.00 0.00
11:15 pm 23:15 Cloudy 46 8 34 1 62 62 SW 3 6 30.18 1022 10 16 0.00 0.00
11:35 pm 23:35 Cloudy 46 8 34 1 62 62 S 3 6 30.17 1022 10 16 0.00 0.00
11:55 pm 23:55 Cloudy 46 8 34 1 62 62 Calm 30.16 1021 10 16 0.00 0.00

Powered by AerisWeather